Change the Weather History Date:

Thursday, November 29, 2012

  Actual Average Record
Temperature  
Mean Temperature 63 °F -  
Max Temperature 75 °F 70 °F 88 °F (2004)
Min Temperature 51 °F 52 °F 35 °F (2005)
Degree Days  
Heating Degree Days 2    
Growing Degree Days 13 (Base 50)    
Moisture  
Dew Point 58 °F    
Average Humidity 80    
Maximum Humidity 100    
Minimum Humidity 55    
Precipitation  
Precipitation 0.00 in - - ()
Sea Level Pressure  
Sea Level Pressure 30.17 in    
Wind  
Wind Speed 5 mph (ENE)    
Max Wind Speed 9 mph    
Max Gust Speed -    
Visibility 8 miles    
Events      
Averages and records for this station are not official NWS values.
T = Trace of Precipitation, MM = Missing Value Source: NWS Daily Summary

Daily Weather History Graph

Daily Weather History Graph

Search for Another Location

Airport or City:

Trip Planner

Search our weather history database for the weather conditions in past years. The results will help you decide how hot, cold, wet, or windy it might be!

Date:

Astronomy

Nov. 29, 2012 Rise Set
Actual Time 7:03 AM CST 5:36 PM CST
Civil Twilight 6:37 AM CST 6:01 PM CST
Nautical Twilight 6:09 AM CST 6:30 PM CST
Astronomical Twilight 5:40 AM CST 6:58 PM CST
Moon 6:40 PM CST (11/29) 7:50 AM CST (11/29)
Length of Visible Light 11h 23m
Length of Day
10h 33m
Full, 99% of the Moon is Illuminated
Nov 29
Full
Dec 6
Last Quarter
Dec 13
New
Dec 19
First Quarter
Dec 28
Full

Hourly Weather History & Observations

Time (CST) Temp. Dew Point Humidity Pressure Visibility Wind Dir Wind Speed Gust Speed Precip Events Conditions
12:56 AM 53.1 °F 51.1 °F 93% 30.24 in 6.0 mi NE 4.6 mph - N/A   Clear
1:56 AM 53.1 °F 51.1 °F 93% 30.23 in 6.0 mi NNE 4.6 mph - N/A   Clear
2:56 AM 52.0 °F 51.1 °F 97% 30.21 in 6.0 mi NNE 4.6 mph - N/A   Clear
3:56 AM 53.1 °F 51.1 °F 93% 30.20 in 4.0 mi NNE 5.8 mph - N/A   Clear
4:56 AM 53.1 °F 51.1 °F 93% 30.20 in 5.0 mi NNE 6.9 mph - N/A   Clear
5:56 AM 53.1 °F 51.1 °F 93% 30.19 in 5.0 mi NE 5.8 mph - N/A   Clear
6:35 AM 51.8 °F 51.8 °F 100% 30.21 in 4.0 mi NNE 4.6 mph - N/A   Mostly Cloudy
6:56 AM 52.0 °F 51.1 °F 97% 30.20 in 4.0 mi NNE 4.6 mph - N/A   Mostly Cloudy
7:56 AM 54.0 °F 53.1 °F 97% 30.21 in 6.0 mi NE 3.5 mph - N/A   Mostly Cloudy
8:56 AM 62.1 °F 57.9 °F 86% 30.22 in 7.0 mi NE 6.9 mph - N/A   Mostly Cloudy
9:56 AM 66.9 °F 60.1 °F 79% 30.23 in 10.0 mi NE 8.1 mph - N/A   Overcast
10:56 AM 71.1 °F 62.1 °F 73% 30.22 in 10.0 mi East 5.8 mph - N/A   Mostly Cloudy
11:34 AM 71.6 °F 62.6 °F 73% 30.21 in 10.0 mi ENE 6.9 mph - N/A   Overcast
11:56 AM 73.9 °F 62.1 °F 66% 30.19 in 10.0 mi East 6.9 mph - N/A   Overcast
12:12 PM 73.4 °F 62.6 °F 69% 30.20 in 10.0 mi East 6.9 mph - N/A   Overcast
12:56 PM 73.9 °F 62.1 °F 66% 30.16 in 10.0 mi SE 6.9 mph - N/A   Overcast
1:56 PM 73.9 °F 61.0 °F 64% 30.13 in 10.0 mi East 9.2 mph - N/A   Mostly Cloudy
2:56 PM 75.0 °F 61.0 °F 62% 30.11 in 10.0 mi ESE 6.9 mph - N/A   Mostly Cloudy
3:56 PM 75.0 °F 57.9 °F 55% 30.10 in 10.0 mi SE 9.2 mph - N/A   Mostly Cloudy
4:56 PM 73.0 °F 59.0 °F 61% 30.10 in 10.0 mi ESE 8.1 mph - N/A   Mostly Cloudy
5:56 PM 71.1 °F 59.0 °F 66% 30.11 in 10.0 mi SE 4.6 mph - N/A   Mostly Cloudy
6:56 PM 70.0 °F 60.1 °F 71% 30.12 in 10.0 mi ESE 5.8 mph - N/A   Mostly Cloudy
7:56 PM 69.1 °F 61.0 °F 75% 30.13 in 10.0 mi East 3.5 mph - N/A   Mostly Cloudy
8:56 PM 68.0 °F 62.1 °F 81% 30.13 in 10.0 mi East 4.6 mph - N/A   Mostly Cloudy
9:56 PM 68.0 °F 63.0 °F 84% 30.14 in 10.0 mi East 3.5 mph - N/A   Mostly Cloudy
10:56 PM 66.9 °F 62.1 °F 84% 30.14 in 10.0 mi Calm Calm - N/A   Mostly Cloudy
11:56 PM 64.9 °F 62.1 °F 90% 30.13 in 10.0 mi Calm Calm - N/A   Mostly Cloudy